Location: Newark
(51.3318°N, 0.0053°E)
Time: 15:16:13
(UTC+00:00)

MOZHAYETS 4 - Visible Passes

Search period start: 26 June 2022 00:00
Search period end: 06 July 2022 00:00
Orbit: 660 x 679 km, 98.2° (Epoch: 25 June)

Date Brightness Start Highest point End Pass type
(mag) Time Alt. Az. Time Alt. Az. Time Alt. Az.
26 Jun 8.8 01:33:43 10° SE 01:38:07 45° ENE 01:42:31 10° N visible
27 Jun 10.4 00:31:33 10° E 00:34:09 15° NE 00:36:45 10° NNE visible
27 Jun 7.8 02:05:56 10° SSE 02:10:34 86° ENE 02:15:13 10° NNW visible
28 Jun 9.8 01:02:32 10° ESE 01:06:19 26° ENE 01:10:06 10° N visible
28 Jun 8.0 02:38:40 10° S 02:43:09 49° W 02:47:39 10° NNW visible
29 Jun 8.8 01:34:13 10° SE 01:38:37 45° ENE 01:43:02 10° N visible
30 Jun 10.4 00:32:02 10° E 00:34:39 15° NE 00:37:15 10° NNE visible
30 Jun 7.8 02:06:26 10° SSE 02:11:04 86° ENE 02:15:42 10° NNW visible
01 Jul 9.8 01:03:01 10° ESE 01:06:49 26° ENE 01:10:35 10° N visible
01 Jul 8.0 02:39:11 10° S 02:43:39 49° W 02:48:09 10° NNW visible
02 Jul 8.7 01:34:43 10° SE 01:39:06 46° ENE 01:43:30 10° N visible
03 Jul 10.4 00:32:31 10° E 00:35:07 15° NE 00:37:44 10° NNE visible
03 Jul 7.8 02:06:56 10° SSE 02:11:33 87° ENE 02:16:11 10° NNW visible
04 Jul 9.7 01:03:30 10° ESE 01:07:17 26° ENE 01:11:04 10° N visible
04 Jul 8.0 02:39:40 10° S 02:44:08 49° W 02:48:37 10° NNW visible
05 Jul 8.7 01:35:12 10° SE 01:39:35 46° ENE 01:43:59 10° N visible
